Lid_Strength_Index
1 -0 -0 -1 -1 -0 -0 -0 -0 -1 -1 -1 -1 -1 -1 -1 -1 -1 -1 -1 -1 -1 -1 -1 -1 -1 -1 -1 -1 -1 -1 -1 -1 -1 -1 -1 -1 -1 -1 -2 -1 -1 -1
0 -0 -0 -0 -1 -1 -1 -1 -1 -1 -1 -1 -1 -1 -1 -1 -1 -1 -1 -1 -1 -1 -1 -1 -1 -1 -1 -1 -1 -1 -1 -1 -1 -1 -1 -1 -1 -1 -1 -2 -2 -1 -1
0 -0 -0 -0 -0 -1 -1 -1 -1 -1 -1 -1 -1 -1 -1 -1 -1 -1 -1 -1 -1 -1 -1 -1 -1 -1 -1 -1 -1 -1 -1 -1 -1 -0 -1 -0 -0 -1 -1 -2 -2 -1 -1
0 -0 -0 -0 -0 -0 -0 -0 -1 -1 -1 -1 -1 -1 -1 -1 -1 -1 -1 -1 -1 -1 -1 -1 -1 -1 -1 -1 -1 -1 -1 -1 -1 -1 -1 -1 -1 -1 -1 -2 -2 -2 -2
-0 -0 -0 -0 -0 -0 -0 -0 -0 -1 -1 -1 -1 -1 -1 -1 -1 -1 -1 -1 -1 -1 -1 -1 -1 -1 -1 -1 -1 -1 -1 -1 -1 -1 -0 -0 -1 -1 -1 -2 -2 -2 -2
-0 -0 1 0 -0 -0 -0 -0 -0 -0 -0 -0 -1 -1 -1 -1 -1 -1 -1 -1 -1 -1 -1 -1 -1 -1 -1 -1 -1 -1 -1 -1 -1 0 -0 -1 -1 -1 -1 -2 -1 -2 -2
0 -0 0 0 -0 -0 -1 -0 -0 -0 -0 -0 -0 -1 -1 -1 -1 -1 -1 -1 -1 -1 -1 -1 -1 -1 -1 -1 -1 -1 -1 -0 -0 0 -0 -1 -1 -2 -1 -1 -1 -2 -2
0 -0 -0 0 -0 -0 -0 -0 0 0 -0 -0 -0 -0 -1 -0 -0 -1 -1 -1 -1 -1 -1 -1 -1 -1 -1 -1 -1 -0 -0 -0 -1 -1 -0 -0 -1 -2 -1 -1 -2 -2 -1
-0 0 -0 -0 -1 0 0 0 1 0 0 -0 0 0 -0 0 -0 -0 -0 -1 -1 -1 -1 -1 -1 -1 -1 -1 -0 -0 -0 -1 -0 -1 -1 -0 -1 -1 -2 -2 -1 -1 -2
-0 -0 0 -0 -1 -1 -1 0 1 0 0 0 0 0 0 0 0 -0 -0 -0 -1 -1 -1 -1 -1 -1 -1 -0 -0 -0 -0 -0 0 -0 -0 -0 -1 -1 -1 -1 -1 -1 -2
1 1 0 0 -0 -0 -0 -1 -0 -0 0 0 0 0 1 -1 -0 -1 -0 0 -0 -0 -1 -1 -1 -0 -0 -0 -0 -0 -0 -0 0 0 -0 -1 -1 -1 -1 -1 -1 -1 -1
1 1 1 0 0 -0 -0 -0 -1 -1 -1 -1 -0 -0 -0 -0 -0 -0 -0 0 -0 -0 -0 -1 -1 -0 0 -0 -0 -0 -0 -0 -0 -0 -1 -0 -1 -2 -1 -1 -1 -1 -2
1 1 1 0 0 0 0 -0 -0 -0 -0 -0 -0 -0 -0 -0 -0 -0 -0 -0 -0 -0 -0 -0 -0 -0 -0 0 0 0 0 -0 -0 -0 -0 -1 -1 -1 -2 -1 -1 -2 -1
3 1 1 0 0 0 0 0 0 0 -0 -0 -0 -0 -0 0 0 0 0 -0 -0 -0 0 -0 -0 0 0 -0 -0 0 -0 -0 0 -1 -0 -0 -1 -2 -2 -2 -2 -1 -1
4 3 1 0 1 0 0 0 0 0 0 -0 -0 -0 -0 0 0 0 0 -0 0 -0 0 0 0 0 0 0 0 0 0 0 -0 -0 -0 0 -0 -1 -2 -2 -2 -2 -2
4 3 3 1 0 0 1 0 0 0 0 0 0 -0 -0 -0 0 0 0 0 0 0 0 0 0 0 0 0 0 0 0 0 0 -0 -1 -0 1 -0 -1 -2 -2 -2 -2
5 4 3 2 -0 0 1 0 0 0 0 0 0 -0 -0 -0 0 0 0 0 0 0 0 0 0 0 0 0 0 0 0 0 0 0 -0 -1 0 1 0 -1 -1 -2 -2
4 4 3 2 1 0 1 0 0 0 0 0 0 -0 -0 -0 -0 0 0 1 0 0 0 0 1 1 1 1 1 1 0 0 0 0 -0 -0 -0 -0 0 -0 -0 -1 -1
4 3 2 2 1 1 0 0 0 0 0 0 0 0 0 0 -0 0 0 0 0 0 0 1 1 1 2 1 1 1 1 1 0 0 0 0 -0 -0 -0 1 0 0 -0
5 4 3 2 1 1 1 2 0 1 0 0 0 0 0 -0 0 0 0 0 0 1 1 1 1 1 1 2 1 1 1 1 0 0 0 0 0 0 -0 -1 1 0 1
6 6 4 3 3 3 2 2 3 2 1 1 0 0 0 0 0 0 0 0 0 1 1 1 1 2 2 1 3 3 2 1 1 1 0 0 0 -0 0 -0 -0 -0 0
8 7 6 6 4 4 2 1 2 2 1 1 0 0 0 0 0 0 0 1 1 1 1 1 1 2 2 1 3 4 6 4 2 1 1 1 1 0 0 -0 -0 -0 0
8 7 7 7 6 5 4 1 2 3 1 2 1 1 1 0 0 0 0 1 1 1 1 1 1 2 3 2 1 3 6 7 4 2 2 1 1 1 1 1 0 -0 0
9 8 7 6 6 5 4 3 2 6 5 2 2 1 1 0 0 0 0 0 1 1 1 1 1 1 2 3 2 1 2 3 6 6 3 2 2 1 1 1 1 0 0
10 10 8 7 5 5 4 3 3 4 2 2 1 2 1 1 0 0 0 0 1 1 1 1 1 1 1 2 2 3 2 2 3 5 6 4 2 2 1 1 1 1 0
10 10 9 8 5 5 5 3 3 3 3 2 3 2 2 1 1 1 0 1 0 1 1 1 1 1 1 1 2 2 3 4 4 4 5 4 4 3 1 1 1 0 0